CAPE
1942 1999 1939 1792 1824 1737 1591 1636 1687 2026 2260 2066 2161 2102 1953 1842 1934 1799 1786 1891 1302 1216 1251 968 964 979 807 1070 800 1169 1166 1097 1133 939 866 1085 1692 2972 2584 2550 2446 2550 2433 2316 2304 2396 2348 2350 2276 2112 2272 2229 2084 2267 2322 2372 2262 2125 2251 2415 2301 2250 2265 2317 2396 2402 2472 2546 2534 2560 2560 2517 2481 2478 2442 2261 1986 1805 1765 1720 1870 1755 1906 1918 1949
1625 1684 1633 1733 1750 1526 1312 1512 2070 2014 1953 2247 2207 1872 1729 1747 1973 2101 2312 2437 2032 1635 1907 1062 812 1272 998 1141 1093 1034 1396 1399 1452 1440 1119 1000 1146 2471 2118 2587 2709 2690 2572 2486 2401 2492 2420 2386 2323 2366 2438 2288 2348 2157 2157 2186 2119 2240 2347 2408 2462 2566 2641 2694 2697 2732 2771 2830 2798 2778 2813 2825 2826 2809 2787 2630 2191 2108 1984 2376 2501 2649 2616 2550 2519
1685 1635 1562 1598 1636 1500 1289 1566 1859 2003 1822 1974 1964 1952 2305 2554 2764 2665 2632 2768 2092 1680 1768 1282 1108 1042 1078 1133 1010 1053 1283 1248 1386 1526 1296 977 1304 1628 3082 2186 2664 2699 2683 2490 2585 2520 2480 2494 2351 2405 2446 2398 2393 2318 2381 2435 2461 2521 2638 2778 2904 3027 3064 3055 3116 3143 3165 3229 3190 3154 3186 3207 3227 3250 3140 2849 2819 2718 2756 2562 2557 2668 2726 2724 2709
1662 1536 1481 1562 1607 1814 1891 1778 1629 1985 1843 1712 2243 2750 2753 2726 3014 3353 3328 2819 1968 1782 1418 1038 1077 958 929 904 1089 1076 1185 1352 1183 992 1165 1404 1832 1523 1873 2909 2354 2733 2798 2834 2842 2669 2610 2539 2529 2567 2622 2690 2704 2718 2773 2790 2874 2962 3062 3240 3397 3472 3531 3595 3719 3794 3825 3763 3735 3705 3625 3648 3640 3578 3252 3037 3198 2894 2980 2983 3038 3061 3078 3138 3111
1913 1726 1485 1445 1576 1490 1617 1508 1474 1943 2229 2505 2723 3156 2996 3011 2804 3492 3026 1721 1233 1224 1227 807 952 749 847 1006 1078 1042 1116 1202 1228 1455 1450 1743 1762 1763 1593 1867 3207 2909 2678 2947 2761 2788 2834 2766 2825 2967 3071 3028 3011 3032 3028 3090 3170 3303 3398 3543 3755 3864 3927 4122 4205 4289 4299 4264 4206 4218 4197 4191 4087 3562 3718 3666 3585 3330 3498 3787 3657 3514 3398 3308 3329
2112 1818 1417 1377 1653 1551 1689 1667 2012 2212 2273 2757 2702 2862 2842 3009 2686 2680 1984 1767 1159 1241 1005 990 759 871 943 914 1027 1177 1349 1306 1346 1148 1716 1530 1340 1696 1798 1988 2159 2549 3624 2937 2674 2703 2827 2989 3187 3283 3367 3305 3225 3185 3213 3242 3318 3517 3678 3839 3987 4098 4243 4381 4416 4453 4495 4482 4484 4543 4521 4490 4147 4147 3978 3949 4121 4160 4033 3930 3880 3799 3799 3750 3710
2210 2177 1717 1506 1390 1542 1749 1848 1928 2031 2021 2645 3073 2769 2960 2786 2710 2356 2244 1746 1267 1250 1016 1031 1044 749 991 1176 1008 1243 1350 1141 1437 1194 1353 1676 1899 1555 1803 1826 1776 2060 2495 3151 3498 2889 3064 2953 3024 2972 2857 3055 3366 3438 3404 3576 3816 3768 3831 3844 3938 4228 4537 4566 4565 4644 4735 4712 4639 4556 4587 4588 4356 4292 4361 4331 4151 4068 4028 3840 3780 3620 3520 3578 3670
2497 2271 1790 1850 1608 1669 1882 2197 2497 2594 2749 2716 3399 2886 2939 3060 2746 2607 2543 1611 1350 1140 966 1110 1064 886 856 996 976 1269 1400 1399 1506 1527 1178 1574 1859 1803 2039 2074 2107 2130 1979 2324 2670 4418 2944 2989 2881 2815 3052 3157 3510 3710 3706 3917 3819 3892 4000 4319 4383 4421 4489 4595 4794 4933 4960 4924 4860 4678 4618 4691 4606 4512 4460 4362 4170 3984 3970 3564 3335 3356 3422 3371 3338
2625 2587 2037 1989 1914 1751 1908 2315 2742 2972 3033 3283 2966 2872 3160 2565 2831 2778 2931 2817 1480 1156 1159 1185 807 829 894 993 1012 1178 1403 1599 1596 1353 1291 1449 1416 1760 1588 1822 2049 1908 2625 2447 2552 3178 3594 3071 3348 3531 3555 3661 3696 3867 3914 4103 4027 4184 4268 4336 4499 4547 4588 4639 4742 4838 4905 4837 4902 4802 4734 4709 4360 4264 4163 4100 3972 3802 3524 3269 3223 3258 3275 3122 2883
2810 2750 2693 2280 2178 2179 2405 2528 2928 3274 3529 3130 3304 2902 3023 2841 3334 3010 2998 3118 2007 1416 1410 1201 767 772 936 664 966 1259 1287 1482 1408 1333 1503 1292 1078 1487 1719 1680 2046 2121 2209 2440 2215 2321 3297 3781 2647 3264 3589 3944 3857 3780 3718 3727 3869 4255 4456 4397 4320 4322 4407 4699 4927 5065 5089 5078 4978 4796 4524 4197 4349 4116 3840 3729 3740 3400 3213 3152 3123 2902 2374 1704 1505
2875 2936 2554 1962 2095 2262 2455 2918 3108 3440 3398 3121 2938 3188 3347 3229 3262 3421 3345 2914 2782 1940 1435 1322 817 861 647 758 751 944 1208 1091 1333 1434 1578 1415 1418 1377 1297 1762 1634 1663 2043 2536 2279 2620 2451 2904 3935 4149 5414 3403 4213 4023 3975 4032 4151 4158 4106 3988 4072 4216 4630 5011 5270 5350 5056 4926 4557 4233 4096 4015 4125 3790 3622 3640 3579 3131 2794 2813 2788 2196 1637 1552 1542
2790 2865 2828 2287 2182 2123 2759 2731 3334 3492 3328 2918 3027 3340 3694 3959 3627 3642 3358 2807 1768 1360 1308 1313 958 755 714 722 830 1090 1411 1410 1359 1326 1269 1493 1418 1688 1460 1360 1614 1714 1895 2176 1979 2040 2362 3106 3287 3059 2888 4685 3401 4220 3966 3811 4015 4130 3939 3729 3987 4526 4839 5193 5486 5460 5270 4756 4331 4203 4053 3907 3854 3719 3460 3594 3408 2909 2510 2313 2160 1771 1622 1623 1396
2722 2725 2654 2571 2454 2530 2648 3216 3337 3562 3576 3334 3606 3450 3601 3703 3478 3534 3067 2238 1933 1280 1252 1255 989 667 1190 995 1039 1181 1124 1558 1485 1209 1039 1073 1080 1236 1229 1238 1199 1615 1764 1868 2258 2374 2324 3062 2850 2850 2842 3131 4838 3842 3638 3859 4105 4145 3871 3794 4318 4604 4864 5038 5370 5224 4866 4499 4343 4202 4059 3885 3634 3559 3255 3524 3362 2745 2271 2006 1898 1777 1600 1245 970
2589 2818 2747 2572 2458 2482 2754 3558 3842 3688 3983 3773 3860 3528 3678 3916 3556 3990 2884 2426 1720 1286 1089 1111 818 957 1091 1007 1090 1186 1278 1343 1307 852 851 712 786 924 1198 1285 1164 1259 1461 1928 2545 2245 2221 2372 2659 2674 2757 3086 3069 3210 4247 5485 5257 3483 3684 4088 4264 4307 4428 4822 5373 4922 4648 4484 4326 4176 3978 3818 3586 3350 3281 3349 3165 2746 2249 1882 1841 1808 1452 897 692
2569 2603 2651 2648 2385 2492 2902 3547 3832 3669 4088 4221 4087 3626 4018 3622 3774 3186 2834 2060 1799 1670 1615 1579 696 999 1390 1207 1080 1127 1367 1161 954 782 628 641 728 797 919 912 826 1183 1358 1830 1568 2091 1660 1751 2360 2922 3247 3251 3062 3092 3119 3744 3478 3817 3890 3687 3708 3973 4379 4872 5346 4617 4359 4488 4372 4077 3900 3776 3499 3244 3133 3163 2672 2306 2118 2116 2052 1842 1435 766 532
2218 2173 2235 2555 2678 2903 3177 3428 3572 3922 3879 4152 3977 3814 3760 3980 3025 3318 3215 2233 1571 1344 1236 1455 1421 1269 1047 1293 1338 1250 787 1201 1115 801 406 471 708 471 489 732 909 1228 1210 1593 1177 1746 1883 2323 2769 3326 3420 3073 3053 3035 3052 2807 3282 4324 5182 5067 3724 3440 4122 4781 5144 4496 4352 4416 4495 4028 3864 3649 3452 3218 2925 3007 2711 2011 2045 2129 1932 1828 1415 741 381
2187 2206 2197 2491 2948 3243 3613 3600 3970 3861 3698 3716 3387 3190 3573 3370 3154 3642 3341 2884 1690 1340 1387 1370 1909 2367 1942 1414 913 1262 1215 995 866 760 789 428 410 518 556 878 1074 1203 1520 1230 1205 1573 1542 1909 2503 2943 3325 3805 3596 3225 3141 3105 2980 3571 4499 5425 3679 3248 3569 4206 5194 4306 4288 4520 4711 4113 4038 3788 3377 3119 2769 3083 2740 2195 2024 1960 1815 1553 1368 1405 1255
2401 2449 2502 2405 2897 3353 3459 3480 3742 3520 3452 3751 3507 3095 2808 3323 3398 3320 3299 3203 2850 1529 1008 1250 1774 2548 2364 1960 2421 2154 1882 1499 1702 709 952 614 324 427 866 899 857 1362 1472 1535 1202 1440 1331 1723 2280 2390 2558 2463 2387 2688 2601 3096 3167 3415 3079 3550 3108 3475 3521 3786 4653 4460 4093 4375 4908 4352 4377 3963 3433 3249 2997 3060 2714 2383 2233 1801 1434 1221 1364 1462 1480
2497 2590 2483 2640 2911 3212 3539 3704 3391 3745 3345 3649 3456 3117 2806 3153 3288 3577 3575 3264 3186 2397 1674 1012 1583 1720 1488 1594 2086 1887 1650 1826 1682 1426 1072 1008 941 672 613 694 744 1001 1058 977 1049 1073 1172 1444 1502 1585 1975 2162 2154 2231 2500 2465 2770 2777 2865 3354 3064 3547 3808 3858 4114 3849 3856 4128 4833 4618 4256 4222 3754 3563 3169 3141 2810 2427 2389 2260 2101 1930 1808 1771 1691
2893 2912 2637 2756 2969 3458 3838 3918 3676 3506 3528 3761 3612 3094 3194 3449 2808 3607 3705 3457 3453 2994 2474 1419 1531 1612 1841 1865 1727 1648 2161 1717 1670 1686 1624 1444 808 783 610 690 790 796 806 756 870 1076 1291 1525 1546 1556 1699 2174 2332 2264 2424 2721 3166 3565 3474 3248 2960 3299 3695 4008 3967 3683 3502 3803 4416 4744 4410 3915 4189 3806 3374 2971 2890 2555 2407 2388 2288 2138 1997 1932 1860
3359 2858 2929 3192 3375 3895 4286 4419 3732 3837 3453 3729 3253 3110 3001 3872 3550 3500 3403 3523 3500 3072 3357 2711 2278 1818 1905 2380 2136 1695 1619 1388 1648 1346 1709 1773 729 970 1158 942 1177 1078 1109 1144 1113 1256 1260 1423 1486 1186 1642 2162 2337 2428 2300 2574 2898 3337 3568 2957 2575 3508 4178 4015 3743 3559 3754 3853 3999 4132 4303 4150 3879 3964 3815 2823 2902 2804 2553 2394 2370 2288 2157 2021 1947
3174 3667 3681 3824 3726 3888 3933 3967 3888 3517 3290 3610 3552 3403 3231 3396 3615 3672 3794 4068 3650 3263 3410 3318 2860 2850 2152 2407 2850 2380 2070 1630 1511 1458 1191 1551 1172 863 789 1034 1568 1241 1322 1274 1285 1324 1320 1333 1380 1321 1514 1754 1917 2204 2622 3172 3200 2384 2968 1960 2691 2968 3300 3604 3485 3657 3441 3473 3960 3763 3929 4132 3867 3741 3710 2899 2808 2834 2725 2515 2340 2320 2241 2094 1980
2711 3138 3734 3645 3685 3772 3523 3450 3420 3663 3571 3986 3521 3083 3054 2992 3339 3559 3521 3714 3382 3936 3135 2970 2842 2848 2740 2417 2313 1567 2048 2030 2031 2138 1874 1382 1489 1221 984 1140 1105 1335 1427 1285 1512 1418 1406 1421 1238 1226 1639 1721 2056 2170 2722 3130 2976 3183 1643 2456 2701 3217 3371 3534 3460 3308 3132 2599 2998 3477 3707 3833 3872 3674 3501 3131 2685 2790 2744 2647 2452 2276 2227 2131 2063
2967 2944 3044 3115 3385 3517 3416 3418 3525 3675 3840 3725 3178 2928 3004 3141 3376 3547 3857 3547 3539 3398 3545 3384 3135 3108 2302 2535 2071 2070 1952 1778 1776 2089 1593 2180 1807 1409 1158 1083 1262 1174 976 1478 1373 1113 1308 1454 1517 1654 1859 2003 2723 3336 3611 3286 4253 2445 3791 3319 3097 3075 3196 3176 3165 3016 2631 2471 2616 2724 2986 3200 3410 3587 3405 3166 2688 2632 2705 2657 2535 2339 2235 2190 2106
2817 2679 2764 2972 3370 3845 3654 3616 3904 3827 4237 4376 3868 3721 3894 3326 3645 3356 3702 3907 3995 3861 3420 3358 3100 3236 3076 2806 2460 2318 2343 2174 1597 1762 2068 1747 2058 928 1504 1263 747 951 1364 1202 1357 1093 1361 1426 1632 1843 2151 2127 2450 3546 2979 2190 2620 3728 2903 3501 3419 3678 3365 3021 3172 2928 2632 2493 2580 2656 2692 2682 2651 2699 2821 2811 2688 2559 2549 2589 2520 2387 2238 2170 2134
2700 2675 2636 2646 2993 3224 3827 3912 4415 4566 4944 4830 4663 4621 4387 4010 3514 3841 3455 3840 4128 3978 3509 3230 2962 2858 2569 2640 2621 2566 2368 2295 2156 1554 1690 1693 1635 1219 2037 1864 1166 774 1165 1477 1714 801 1657 1741 1694 2314 2429 2856 2698 3300 3525 2562 2538 3551 2774 3094 3470 3935 3401 2902 2835 2722 2535 2487 2549 2538 2540 2550 2856 3177 3119 2838 2729 2723 2501 2476 2424 2395 2218 2128 2098
2828 3218 3054 3152 3155 3358 3687 3549 4178 4741 4869 4394 3908 3797 4585 3946 3914 4087 3824 3720 3830 3630 3560 3030 2886 2849 2515 2503 2380 2429 2676 2590 2032 2163 2204 1954 2000 2098 2317 2281 1636 1182 954 1463 1537 1460 1139 1246 1197 1718 2922 3477 3386 3413 3685 2910 3526 2850 2750 3495 3041 4245 4110 3335 2404 2385 2419 2438 2449 2485 2452 2478 2665 2820 2786 2899 2761 2696 2691 2444 2359 2314 2278 2118 2043
3163 3246 3299 3022 3286 3400 3795 3474 4420 4319 4069 4277 4259 3307 4158 3632 4065 3874 3446 3119 3457 3841 3463 3122 2790 2717 2752 3312 3196 2232 2583 2609 2761 2572 2623 2723 2698 2478 2380 2319 2327 1885 1482 1266 1296 1396 1641 1622 1429 1974 2800 3198 3547 3040 2726 2842 2790 2547 2589 3121 3108 3829 4082 2950 2174 2308 2350 2314 2317 2284 2276 2277 2346 2617 2728 2797 2897 2784 2648 2546 2370 2282 2245 2176 2063
3126 2626 3088 2988 3297 3339 3364 3073 3631 4189 4404 4394 3802 3831 4554 3791 3498 3649 3441 2992 3576 3714 3583 3288 3248 2642 2769 3002 2794 2940 2789 2631 2493 2598 3116 2751 2757 2829 2394 2112 2549 2600 2351 1884 2078 1626 1492 1295 1237 1577 2916 3362 3322 2661 2308 2836 2916 2093 2219 2601 2834 3040 3177 1925 2051 2453 2331 2159 2090 2001 1966 1993 2110 2386 2613 2622 2829 2879 2702 2534 2346 2298 2251 2219 2103
2832 2789 2713 3206 3299 3158 3444 3305 3208 3459 3412 3328 3675 3942 4669 3730 3754 3990 3388 3878 3672 3657 3556 3244 3251 2998 2692 2715 2702 2589 2760 2389 2458 2500 3076 3140 3048 3170 2967 3077 3180 2939 2866 2884 2852 2355 1904 1510 1321 1427 2291 2862 2482 1824 1872 2098 2982 2460 2247 2514 2576 3060 2706 2246 2382 2733 2433 2069 1936 1754 1641 1652 1698 1846 2136 2469 2506 2453 2418 2484 2504 2321 2249 2228 2154
3178 3156 3254 3120 3227 3276 3542 3653 3650 3522 3855 3325 3931 4239 4338 3827 3571 3621 3552 3676 3678 3946 3877 3590 3022 3070 3324 3083 3235 2740 2840 2785 2973 2570 2693 3130 2894 2825 3247 3290 3440 3382 3333 3518 3079 2172 2224 2442 2337 2080 1852 2294 2381 2104 2056 2302 2640 2396 2444 2631 2689 3099 2672 3835 3702 3404 2362 1980 1564 1340 1217 1216 1261 1283 1399 1664 2013 2241 2319 2246 2186 2195 2221 2213 2140
2836 3177 3152 3016 2982 3053 3062 2870 2855 2957 3357 3143 3350 3925 3971 3545 2947 2766 2677 3778 3636 3949 3392 2994 2872 3138 3529 3374 3360 3122 3304 3446 3241 3158 3027 2537 2602 2713 3082 3443 3644 3807 3787 3847 3500 3581 3178 2798 3053 2230 1851 2107 1968 2298 2495 2376 1748 2015 3057 2369 3243 2732 2952 1166 4386 2443 2442 1544 1045 905 804 825 856 815 881 1095 1339 1601 1794 1984 2060 2081 2101 2150 2164
2556 2684 2835 2887 2950 2871 2694 2691 2522 2815 3496 3261 2986 3562 3987 4045 3845 3542 3738 4220 3781 3479 3409 3226 2986 3093 3241 3210 3279 3353 3655 3476 3280 2975 2935 3150 3309 3154 2929 3013 3234 3464 3754 4055 3844 3540 3323 2197 2367 3032 2655 2437 2217 2344 2332 2300 2045 2117 1804 1675 1691 1529 1108 630 443 2313 1631 1242 844 671 627 572 532 541 644 853 1007 1074 1196 1349 1561 1705 1821 1926 2075
2603 2422 2726 2665 2736 2820 2680 2846 2714 3050 3397 3697 3412 3018 3415 3799 3725 3541 3454 3928 3922 3202 3369 3619 3238 2875 2932 3020 3182 3243 3438 3547 3380 3081 2988 2522 2519 2746 2787 2872 3170 3185 3683 4091 4038 3508 2880 3263 3384 3510 2670 2505 2502 2698 2406 2354 2286 2286 2084 1667 1128 645 535 578 364 1084 385 1302 561 515 413 385 261 368 529 677 727 717 722 792 944 1147 1375 1623 1776
2534 2478 2541 2410 2613 2805 2674 2863 3241 3190 3737 3470 3068 3179 3358 3934 3892 3313 2868 3488 3733 3557 3498 3313 2734 3014 2914 2771 2710 2756 2670 2957 3165 2770 2426 2308 2346 2638 2887 2815 3067 3267 3210 3886 4447 3962 3307 2994 2171 2205 2153 2026 2164 2283 2162 2063 2091 1860 2166 1475 811 466 543 490 370 342 1142 736 554 550 346 180 218 217 530 572 486 310 231 16 242 607 881 1126 1320
2099 2453 2448 2455 2798 2981 2884 3082 3472 3222 3413 3275 3217 3305 3707 3895 3925 4098 3625 3574 3498 3596 3325 3134 3090 3184 2974 2924 2650 2678 2782 2766 2575 2599 2519 2460 2616 2750 2797 3130 3262 3520 3654 3376 3988 4259 3655 3098 3209 2464 2768 2851 2865 2428 2213 1787 1410 1439 1522 1562 1195 696 720 442 254 240 912 424 652 654 581 354 181 484 573 453 146 66 0 0 0 0 476 684 819
1862 2126 2312 2590 2701 3074 2577 2895 3230 3389 3319 3342 3460 3255 3280 3294 3444 3414 3546 3682 3801 3766 3526 3443 3328 3152 3010 2836 2629 2752 2685 2476 2842 2962 2695 3017 3034 2778 2647 2724 2871 3015 3225 3260 3411 3354 3151 2965 2808 2721 2780 2730 2482 2424 2387 1890 1296 1004 1100 1490 1577 1282 1351 796 198 125 115 202 383 557 603 555 461 594 582 557 532 543 523 236 0 0 0 202 532
1911 1937 2229 2268 2304 2794 2672 2682 2953 3154 3093 3261 3390 3405 2996 2979 3055 3073 3379 3580 3547 3653 3705 3470 3464 3516 3388 3340 3148 2611 2388 2199 1943 2232 2767 2600 2486 2371 2762 2824 2682 2652 2522 2500 2438 2549 2686 2734 2564 2341 2278 2136 2375 2611 2585 2448 1798 1230 1288 1214 1085 995 1377 1429 925 378 125 86 156 274 852 1182 903 632 872 840 820 924 918 802 613 169 0 0 0
2023 1997 1898 2196 2202 2170 2355 2171 2224 2800 3104 3058 3175 3333 3184 3074 3147 3159 2939 3151 3175 3110 3437 3245 2934 2704 2489 2405 2512 2494 2348 2341 2090 2067 2285 2572 2372 2468 2365 2467 2653 2367 2244 1872 1821 1994 2121 1872 1777 1689 1638 1525 1571 1609 1526 1900 2474 2910 2048 1422 1578 1297 1311 1658 1846 1235 410 273 268 202 250 313 399 643 1205 1132 1070 1217 1360 1215 996 712 393 0 0
1877 1953 1744 1728 1967 1756 1699 1781 1894 2132 2550 2724 2883 2993 3058 2821 2686 2733 2640 2510 2356 2666 2774 2788 2478 2150 2247 2174 1862 1673 1920 2192 2341 2266 2201 2064 2058 2010 1999 2272 2566 2511 2480 2050 1941 1922 1801 1667 1433 1126 1271 1649 2069 1793 1490 1451 1652 1589 1483 976 750 1110 1360 1676 1666 1623 1601 1692 945 372 283 906 989 1192 1154 1194 1257 1396 1579 1481 1466 1307 874 614 0
1610 1740 1704 1551 1710 1788 1560 1495 1600 1602 1569 1837 1854 2244 2427 2244 2308 2248 2222 2228 2212 2164 2133 2100 2104 2154 2080 1686 1556 1378 1326 1458 2321 3234 3102 3300 2359 1817 1994 2102 2160 2076 2229 2087 1902 1927 2075 1896 1950 1765 1474 1497 1671 1620 1060 933 942 980 1064 1227 1358 1418 890 684 999 1010 1406 1013 630 515 700 993 1048 1139 1209 1654 1663 2360 3182 1833 1598 1461 1147 595 0
1389 1432 1673 1763 1510 1445 1499 1528 1602 1251 758 767 1365 1790 2154 2010 2263 2050 1965 2077 2150 2013 2007 2122 1871 1812 1776 1774 1279 1407 1892 2271 3380 4066 3086 2504 2268 2347 2525 2257 2311 2240 2022 2103 1976 1839 1690 1666 1620 1155 950 698 505 441 439 470 463 377 372 452 718 947 1091 1262 1240 1224 1148 1183 1217 1960 2377 1775 1325 1811 2408 2077 1573 2149 1040 844 1094 795 811 278 0
1738 1552 1525 1487 1351 1041 960 1015 1122 959 313 240 1800 1460 1245 1008 1630 1752 1939 2201 2390 2360 2146 2189 2148 1897 1720 1568 1607 1492 2758 3845 3626 3157 3062 2630 2313 1976 1756 1871 2618 3004 2177 1990 1939 1708 1867 1477 1144 1034 914 828 1020 1170 859 388 167 223 490 734 908 963 1242 1409 1300 1645 1641 1867 2319 2812 2719 2154 2054 2187 2156 2227 2005 1880 1592 910 862 695 240 13 0
2137 1796 1893 1652 1513 1085 530 462 483 532 474 807 1282 1260 1203 1105 1531 1846 1596 1607 1572 1778 1861 1820 1758 1630 1585 1448 1316 1147 1241 1756 2057 3502 3786 2919 2405 2176 1900 1839 1848 1786 2052 2806 2635 2304 2209 1652 1394 1259 1194 1073 1021 1070 482 201 501 944 1342 1630 1796 1883 1848 1729 1759 1770 1904 2019 2517 2787 2480 1958 1482 1682 1986 2051 1845 1658 1009 1294 1193 1064 702 504 0
2144 2335 2262 2025 1938 1827 1191 993 924 734 742 1258 1065 998 972 783 720 993 1351 1307 1339 1338 1388 1625 1826 1927 1972 1766 1568 1100 834 902 1614 1971 2528 3430 3687 2846 2560 2222 1977 1886 1888 1710 1656 2837 2407 2314 2272 2031 1771 1498 1561 1416 1332 2012 2831 2880 2724 1955 1719 1865 1894 1954 2016 1402 1686 2427 2336 2274 1668 1411 1540 1483 1278 1241 1344 1631 1682 1337 1502 1407 939 652 511
2230 2348 2203 2137 2131 2193 2020 1804 1752 1608 1390 1064 744 697 592 480 486 695 1385 1204 1264 1260 1409 1540 1616 1666 1929 2377 2519 2242 1937 2058 2544 2880 3174 3442 3457 3900 4440 4454 4352 3947 2795 2300 1824 1548 1650 2006 2114 2203 2333 2571 2594 2734 2683 3064 3234 3064 3069 2881 3126 2516 2509 2725 2872 2947 2932 2514 2122 1598 1923 2237 1817 1456 1564 1574 1310 1526 1608 1421 1700 1318 1192 894 578
1958 2155 1997 2018 1988 1965 1987 2088 2118 1814 1676 1152 1076 966 717 471 442 430 1077 1221 1006 1101 1326 1599 1937 1948 1944 1890 2254 2572 2844 3084 2946 3164 3501 3607 3500 3128 3118 3115 2772 2566 2325 2191 2756 2686 2495 1919 2324 2598 2545 2566 2728 2829 2816 2877 2817 2670 2905 3313 3315 3338 3377 3497 3277 3197 3006 2775 2734 2505 2474 2416 2127 1716 1633 1607 1435 1473 1566 1546 1477 1619 1432 1111 772
1771 1712 1893 1764 1863 1988 2146 2310 2264 2087 1337 1007 1052 1006 880 680 645 619 1054 1634 1668 1552 1569 1746 1900 2200 2370 2466 2684 2878 3124 3242 3267 2631 2705 2637 2685 2709 2875 2944 2849 2761 2124 1891 2079 2250 2107 1408 1295 1396 1495 1471 1472 1982 2433 1824 1883 1908 1938 1887 2008 2360 2833 2893 2613 2002 1424 1189 1008 1318 1582 1887 1923 1702 1970 1973 1969 2081 2086 2208 1567 1404 1368 1246 1090
1632 1698 1828 1923 2061 2095 2199 2361 2289 2424 1751 1346 1183 1076 979 841 767 1252 1513 1640 1856 2054 1894 1991 2132 2190 2268 2485 2862 2626 2819 2999 3578 2296 1999 1877 2269 2531 2759 2726 2310 1892 1343 1154 1639 1720 1802 1518 1345 1268 1132 1002 1034 1017 946 910 912 1354 1383 1463 1649 1892 2223 2217 2080 1848 1756 1371 1018 1086 1084 1247 1591 1829 1896 1975 2127 2104 2120 2078 2234 1496 1596 1628 1612
1238 1416 1882 1734 1977 2134 2279 2283 2034 2202 1772 1573 1586 1387 1160 887 857 1640 2166 2234 2089 2226 2240 2221 2272 2309 2535 2548 2670 2736 2499 3027 2691 1982 1677 1471 2124 2490 2805 2808 2800 2378 2275 1754 1164 1630 1510 1281 1505 1571 1562 1520 1476 1456 1392 1286 1190 1092 1055 1266 1700 1867 1983 2092 1994 1903 1875 1700 1579 1420 1500 1478 1838 1960 2090 2026 1897 2237 2223 2187 1976 2048 1724 1716 1765
974 1066 1541 1816 1671 1833 1752 1763 1905 1667 1597 1323 1350 1367 1280 1198 1172 2048 2040 2411 2440 2480 2296 2256 2544 2563 2602 2472 2325 2088 2117 1873 1700 1430 1005 733 1443 2160 2707 2794 2693 2686 2459 2215 2114 2353 2578 2437 2721 2220 2387 2658 2208 2238 2090 1878 1648 1499 1327 1302 1566 1768 1858 1910 1974 2029 1750 1760 1578 2573 2322 2090 1953 2042 1983 1898 1953 1976 1926 1947 2225 2484 2571 2508 1822
Wind_Speed
7 8 10 9 9 9 8 7 7 7 10 11 12 14 16 17 19 19 20 20 19 19 20 18 17 17 16 14 13 12 11 10 9 10 9 9 11 6 11 14 17 18 18 19 21 23 23 22 21 22 22 23 22 22 22 22 22 21 21 21 21 21 21 21 21 23 23 24 24 25 26 26 26 28 29 30 31 31 31 31 30 29 28 28 29
7 8 8 8 8 8 8 7 7 8 9 11 14 15 17 18 19 20 21 21 19 19 21 18 17 15 16 13 13 9 10 9 9 9 9 9 9 7 11 14 17 17 18 19 21 23 23 22 22 22 22 22 22 21 21 21 21 20 21 21 21 21 21 20 21 22 23 23 24 25 26 27 27 27 29 29 30 31 31 30 31 29 29 29 29
7 7 7 7 8 9 8 8 8 8 10 13 15 16 17 19 19 19 20 19 18 18 19 17 16 15 14 12 10 10 9 9 10 10 8 8 8 10 9 14 16 17 17 18 20 22 23 22 22 22 23 22 22 22 21 21 21 21 21 21 21 22 21 21 21 22 22 23 24 25 26 27 28 28 28 28 29 30 30 31 32 32 32 31 30
7 7 7 8 8 9 9 9 9 11 13 14 15 17 17 18 19 20 20 18 18 17 19 16 15 13 12 11 10 10 9 10 9 6 6 6 8 9 10 10 15 16 16 18 19 21 21 21 21 21 22 23 23 22 22 22 21 22 23 22 22 22 22 22 22 22 22 23 24 25 26 27 27 26 26 27 27 28 29 30 31 30 31 30 29
8 7 8 8 8 9 9 10 12 13 14 15 16 18 17 18 17 19 19 18 17 16 17 14 13 14 13 9 9 9 9 9 9 9 7 7 7 9 9 9 9 14 16 16 17 19 20 20 21 21 22 22 23 22 22 22 22 23 23 23 23 23 23 23 22 23 23 23 24 24 25 25 25 23 24 25 26 26 25 26 27 28 28 28 28
8 8 8 8 9 11 10 11 13 14 15 17 17 18 17 18 17 17 18 18 16 16 15 13 12 11 11 9 9 9 10 9 9 7 9 7 6 8 9 8 10 10 10 14 16 17 19 19 19 20 21 22 23 22 22 22 22 23 23 23 23 23 23 23 22 22 22 22 22 22 23 23 21 21 22 22 22 22 21 21 22 22 22 22 22
9 9 9 9 10 11 12 12 13 14 15 17 19 17 17 17 18 17 16 16 16 16 16 13 11 9 10 10 8 8 10 8 9 9 7 7 10 8 9 10 8 9 10 10 11 15 16 18 19 19 19 21 22 21 21 21 22 22 23 23 23 22 22 21 20 20 20 20 20 20 21 20 19 18 18 17 16 17 16 15 17 19 20 21 21
9 11 10 12 11 12 13 13 14 15 15 16 18 16 17 18 17 16 15 16 16 13 13 12 12 9 8 9 7 9 9 8 9 10 6 9 8 8 9 9 9 9 11 11 10 7 13 15 16 17 18 19 20 20 19 20 20 21 22 22 21 21 20 19 17 17 17 17 17 16 16 15 15 14 14 15 13 14 15 14 15 16 17 18 19
11 12 13 12 12 11 12 12 14 14 15 15 15 15 17 14 15 15 15 15 15 12 11 11 10 9 8 7 6 8 8 9 9 7 6 8 9 7 7 6 8 9 11 10 10 8 8 12 14 15 15 17 17 18 17 18 18 19 19 19 19 18 17 15 15 13 12 11 11 11 11 11 12 12 12 12 11 12 13 13 12 13 14 16 17
12 13 15 13 13 12 11 12 13 13 14 14 14 14 14 14 13 14 13 12 13 12 11 12 10 8 9 5 8 9 7 9 7 9 7 7 7 7 8 7 7 8 10 11 9 9 8 9 12 13 14 14 15 15 15 15 16 16 16 16 15 15 14 13 12 10 7 8 8 9 10 11 12 11 11 10 9 10 11 11 11 10 12 13 15
12 13 13 13 12 11 11 11 12 12 12 12 11 12 13 13 13 11 12 12 11 12 11 12 10 11 7 6 6 8 9 7 10 8 9 8 7 8 5 6 6 6 8 9 8 7 9 9 7 7 7 13 12 13 13 14 13 13 13 12 12 12 11 11 9 6 7 8 10 11 11 11 11 11 10 10 10 10 10 10 10 10 10 12 13
12 12 12 12 11 10 10 10 10 10 12 12 11 10 11 11 11 12 11 10 9 10 9 10 7 7 8 7 7 6 8 9 10 9 8 8 6 8 5 3 4 6 5 7 8 8 7 7 7 6 5 8 10 11 12 11 11 10 10 10 10 10 10 9 7 7 9 10 12 12 12 12 12 11 11 10 10 10 10 10 10 10 10 11 12
10 10 10 10 11 9 9 9 9 9 10 10 11 11 10 11 9 11 10 9 9 7 6 9 7 5 7 6 5 8 6 9 10 9 8 7 5 6 4 5 4 4 5 6 6 6 5 6 6 5 5 4 7 12 11 10 10 8 7 8 9 8 8 8 7 8 10 12 13 14 13 13 12 12 12 11 11 11 11 11 10 10 10 10 11
7 8 8 8 9 8 8 7 9 9 10 10 9 8 9 10 11 8 8 8 8 11 9 8 6 6 6 5 4 5 7 9 10 6 7 5 4 4 4 6 4 3 3 2 4 4 5 4 6 5 5 5 5 3 4 6 6 6 4 6 7 6 5 6 7 9 11 12 14 14 14 13 13 13 12 12 12 12 12 11 11 11 11 10 11
5 5 6 7 7 7 7 6 8 8 8 7 7 7 9 10 11 11 10 7 7 6 8 13 5 4 5 7 5 3 5 6 7 5 7 3 5 3 4 2 3 4 4 3 3 4 5 5 4 5 4 5 5 4 4 2 3 2 3 5 5 5 5 6 8 10 12 13 15 15 15 15 14 13 13 13 13 12 13 13 13 13 12 10 11
4 4 4 5 5 5 6 5 6 8 8 8 7 6 7 8 10 10 11 8 8 7 6 7 9 7 3 6 6 5 3 5 4 6 3 4 5 0 2 2 4 4 4 4 4 4 3 4 3 3 4 4 5 5 4 5 1 6 6 5 5 4 5 7 9 10 13 14 16 17 17 17 17 16 15 15 14 14 14 14 14 14 13 11 11
3 4 3 3 3 4 5 5 5 6 7 6 7 6 7 7 7 9 10 10 8 7 7 7 8 9 7 6 3 5 7 6 5 9 7 2 2 3 5 5 4 4 6 7 5 3 4 2 3 3 3 3 3 4 4 4 2 3 3 10 5 4 6 8 10 11 13 15 17 18 19 19 20 18 16 16 16 15 15 15 15 15 13 12 12
2 3 2 2 2 3 4 4 4 5 6 9 8 8 5 7 6 7 6 7 9 7 5 6 7 6 4 6 9 8 9 9 9 6 8 6 3 4 2 4 4 2 4 1 1 1 1 0 0 2 1 2 4 4 4 2 1 1 0 3 3 5 7 10 12 13 14 15 16 17 19 20 20 19 17 16 17 17 16 15 15 15 14 13 12
1 1 2 2 2 3 4 5 5 5 5 5 5 5 6 7 8 6 7 7 7 6 6 5 7 4 6 7 8 8 8 9 8 5 5 8 8 2 3 3 3 1 1 1 3 2 2 3 2 4 3 2 3 3 1 2 1 3 4 4 6 7 8 10 13 15 15 15 16 17 19 20 21 20 18 18 18 18 17 16 16 16 15 13 13
2 1 0 1 1 2 2 3 3 4 4 4 6 7 9 8 7 8 7 6 6 7 8 8 5 6 10 9 7 8 8 8 9 8 6 4 2 3 4 3 3 6 4 5 6 7 6 2 1 1 3 3 1 2 1 1 1 2 5 11 7 7 8 10 13 15 16 15 16 18 19 19 20 20 19 18 19 18 17 17 16 15 15 14 13
2 2 0 0 0 1 0 1 1 1 2 3 3 5 5 6 5 5 5 5 6 7 7 7 9 9 8 10 11 9 7 7 5 6 8 6 4 4 6 4 4 5 7 5 6 6 4 5 5 3 2 2 1 1 1 1 1 2 5 9 5 7 9 10 12 13 15 16 17 18 18 19 19 20 20 19 20 19 19 18 17 16 15 15 14
3 2 2 1 0 0 1 2 1 1 1 2 3 3 3 4 4 5 8 8 8 7 7 8 9 10 9 9 9 10 10 8 7 6 7 5 5 4 4 3 4 5 5 6 7 7 6 6 1 2 5 2 1 1 0 1 1 3 6 3 6 8 9 10 11 12 13 15 17 18 18 18 18 19 21 21 21 21 20 19 18 17 16 16 15
3 4 2 1 1 1 1 1 1 1 0 1 1 1 2 2 3 6 5 6 7 8 8 7 8 9 9 8 8 6 8 8 8 9 7 6 6 5 6 7 7 6 5 7 4 6 4 3 4 5 3 1 2 2 1 0 4 4 3 9 10 10 9 9 11 12 13 14 15 16 16 16 16 18 20 21 21 21 21 20 19 18 17 16 16
3 4 3 3 4 3 3 3 2 2 1 1 1 2 3 4 4 4 4 5 6 7 9 10 10 8 9 8 7 7 7 6 7 5 5 8 7 5 5 4 3 5 5 4 3 4 3 3 3 3 1 2 1 3 2 5 5 7 7 10 12 11 9 10 11 11 12 12 13 14 14 15 15 16 18 20 21 22 22 22 21 20 19 18 17
3 2 3 3 5 5 4 4 4 3 3 3 3 4 5 3 5 3 5 5 4 5 6 7 8 10 9 9 9 7 7 7 6 7 8 5 3 4 6 6 3 3 5 3 3 2 4 1 1 2 2 3 1 2 4 6 3 7 6 8 12 11 10 10 10 10 10 11 12 12 13 14 15 16 17 20 22 23 24 25 24 22 21 20 18
2 2 3 4 4 6 6 5 5 5 4 4 4 5 5 5 4 4 3 5 7 6 6 6 7 6 6 8 7 8 7 7 6 5 4 2 3 4 5 5 4 2 3 2 2 2 5 4 1 3 1 3 3 2 3 5 5 8 3 9 8 13 9 8 8 7 9 9 10 11 12 13 13 15 17 19 22 24 25 26 26 25 23 20 19
3 3 3 4 5 6 6 5 6 5 5 4 5 5 5 4 6 6 7 7 6 6 6 6 6 6 6 6 7 7 8 8 6 6 7 5 5 5 5 5 5 4 2 2 2 2 0 1 1 1 3 1 3 3 3 4 3 6 6 9 5 12 9 8 6 7 8 8 9 10 12 13 14 15 17 19 21 23 24 25 26 26 25 22 21
3 3 4 3 4 5 6 5 6 6 5 4 4 4 4 4 5 5 4 6 6 6 6 6 6 6 6 7 7 7 6 6 8 7 6 7 7 6 4 4 5 4 5 3 3 2 3 1 1 3 2 1 2 4 4 7 6 3 9 7 4 5 12 5 6 7 7 8 9 11 12 13 14 14 15 18 20 22 23 23 24 26 26 24 24
3 4 4 5 4 4 5 5 6 6 5 4 3 3 4 4 4 4 4 5 7 6 7 7 8 7 6 6 6 6 7 7 5 5 6 6 5 5 5 5 6 4 4 4 3 3 3 3 4 1 3 1 2 2 4 6 2 1 5 5 4 6 9 3 8 9 9 8 9 10 10 11 11 12 13 15 17 19 20 22 22 23 25 25 24
4 5 5 6 5 5 5 5 5 5 5 4 4 4 4 3 4 3 4 6 6 6 6 6 6 6 7 6 6 5 6 5 3 3 6 5 3 2 3 4 4 3 4 4 3 3 4 3 3 3 3 1 3 3 2 3 11 3 3 4 5 3 4 10 12 12 10 9 8 8 8 8 9 10 12 13 13 15 17 20 22 22 24 24 23
6 5 5 5 6 6 5 6 6 5 6 4 5 4 3 2 3 3 4 4 4 5 5 5 5 6 7 6 6 5 5 4 5 4 5 5 3 3 3 3 4 3 3 3 3 4 5 4 4 4 4 1 1 2 3 4 4 2 4 3 5 4 8 13 17 15 11 8 7 6 6 6 7 9 10 11 13 15 17 19 20 21 23 23 22
7 7 5 4 5 6 6 5 6 6 6 6 5 5 3 2 3 1 7 6 4 4 4 6 5 6 6 5 5 5 4 3 3 3 4 3 3 3 2 3 3 2 2 2 2 3 4 6 5 4 4 4 3 2 4 5 1 12 1 4 4 10 11 8 21 17 14 8 7 6 6 6 6 7 8 10 13 16 17 18 20 21 21 22 22
8 8 7 6 6 6 5 6 5 7 7 7 7 7 5 4 4 4 6 5 4 4 4 4 4 4 5 5 4 4 4 3 3 3 3 4 4 3 3 3 2 3 3 3 2 3 4 6 6 4 5 4 4 4 5 5 6 4 4 2 3 6 7 7 8 19 14 11 7 6 6 7 7 7 8 10 12 15 17 17 18 18 19 20 21
9 8 8 8 8 7 6 7 6 8 9 8 7 7 6 5 3 4 4 4 3 2 4 4 4 4 5 4 4 3 3 2 3 3 2 2 3 3 4 4 3 3 5 3 2 2 5 4 5 5 5 3 4 4 6 6 5 4 2 2 6 7 8 7 5 11 18 13 8 6 7 7 8 8 9 11 13 14 16 17 17 17 17 18 20
11 9 10 9 11 10 9 9 9 8 9 8 7 7 7 7 5 4 6 6 4 2 2 2 2 3 3 3 3 3 4 4 4 3 3 3 4 4 4 4 3 2 2 3 2 1 4 5 5 5 5 5 5 5 5 4 3 0 2 5 6 7 7 6 5 4 18 12 11 8 9 9 9 10 11 12 13 14 15 nan 17 17 17 18 20
13 13 11 12 13 12 11 11 10 8 9 8 8 9 9 8 7 7 7 6 5 4 3 2 2 2 2 3 3 3 4 4 4 4 4 3 3 3 1 2 1 1 1 0 1 1 2 4 3 4 4 3 3 3 2 2 1 3 5 6 8 7 6 5 4 4 14 14 13 13 11 11 12 13 14 14 14 nan nan nan nan nan 18 18 19
14 15 15 14 14 14 12 12 11 10 10 9 9 8 9 10 9 9 9 9 7 6 4 3 2 2 2 1 2 2 2 1 1 2 2 3 3 2 1 2 2 2 2 1 1 1 1 2 3 3 3 2 1 1 2 3 4 6 8 8 7 6 6 5 4 3 5 17 18 16 15 16 16 16 16 15 15 16 16 16 nan nan nan 20 20
15 16 17 16 16 15 13 13 13 12 12 11 11 10 10 10 11 10 10 9 9 8 7 5 5 4 3 3 3 3 2 1 0 1 2 1 1 0 1 2 2 2 1 1 2 2 2 2 1 1 1 2 3 4 4 6 6 6 7 7 6 5 6 5 3 2 3 nan 2 6 13 16 17 18 17 16 18 17 16 16 17 18 nan nan nan
17 17 18 18 18 17 16 15 14 14 14 13 13 12 11 11 11 11 10 10 9 9 8 7 6 6 5 4 5 5 4 3 1 2 2 2 2 2 1 1 1 1 1 2 3 3 3 3 4 4 4 4 5 4 6 7 7 7 6 6 5 5 4 5 4 2 2 2 2 9 9 5 6 9 10 16 18 19 16 16 17 17 17 nan nan
19 18 18 19 19 18 18 17 16 16 16 15 15 14 12 12 12 12 11 10 9 9 9 9 8 8 7 6 6 6 7 7 6 6 6 5 5 4 4 4 4 3 3 3 4 4 5 5 5 5 7 7 7 7 7 8 8 9 8 7 6 6 5 7 7 4 2 3 4 2 6 11 12 16 18 18 20 19 19 18 20 18 18 18 nan
22 21 20 19 20 19 20 19 19 17 17 17 16 16 14 13 12 12 12 11 10 9 9 9 10 10 10 8 8 8 10 12 12 10 9 11 9 7 7 6 5 5 5 6 6 7 8 8 8 8 8 9 9 8 8 8 7 5 6 6 6 6 6 7 9 8 6 5 6 6 3 1 4 4 3 4 7 14 18 23 17 22 19 18 nan
23 24 23 21 20 20 20 21 19 18 18 18 23 27 23 18 16 15 14 13 12 11 11 11 10 11 11 10 10 13 14 12 13 14 12 10 10 8 7 7 7 7 7 7 7 7 7 7 7 7 7 7 7 6 5 4 3 3 4 5 5 6 6 6 9 12 11 7 6 8 8 5 2 3 3 4 5 7 4 10 9 10 15 18 nan
24 25 25 23 22 21 20 20 19 18 19 21 32 28 23 18 17 16 15 14 13 12 11 11 11 11 11 12 11 13 16 16 14 14 13 13 12 12 11 9 7 7 7 7 7 6 6 5 6 6 5 5 5 5 4 3 3 6 7 7 6 7 7 7 8 12 15 12 10 10 11 10 8 7 6 6 6 5 5 10 17 10 11 nan nan
26 26 26 25 25 24 24 22 20 20 20 31 34 29 24 21 19 18 16 16 15 14 13 12 12 12 12 12 13 13 15 15 14 16 17 15 14 13 12 11 10 9 8 8 8 7 7 6 6 7 7 6 6 8 6 5 7 7 7 7 6 7 7 8 9 10 14 15 12 10 11 14 12 10 11 12 10 9 7 13 13 13 10 11 nan
28 27 27 27 26 26 25 25 23 23 22 36 32 31 26 23 22 18 19 18 17 16 15 15 14 14 14 14 14 15 14 17 16 13 12 14 18 16 13 12 11 11 11 12 11 9 8 8 7 8 10 8 6 8 9 8 9 7 8 8 9 8 8 7 8 10 14 16 13 10 10 14 14 13 13 13 12 11 10 16 19 14 12 10 12
30 28 27 28 29 28 28 27 27 26 24 34 33 32 28 25 25 21 20 19 18 18 18 17 17 16 15 15 15 15 16 16 17 15 14 13 13 14 14 13 12 14 16 15 14 15 13 10 9 9 10 11 9 9 10 10 9 9 9 9 10 9 9 8 7 10 13 16 14 10 10 14 15 13 14 14 14 14 14 18 25 19 14 11 11
33 32 29 29 30 28 28 29 28 28 28 39 35 34 30 27 28 24 22 21 21 20 20 19 18 17 17 16 15 15 16 17 17 18 16 16 15 14 13 12 12 12 13 14 16 17 17 15 13 12 11 12 11 11 13 14 12 12 11 10 10 10 8 7 9 12 13 17 18 16 11 12 14 12 12 14 13 14 14 22 27 22 19 15 14
32 34 34 32 31 30 30 30 29 29 40 47 45 42 38 34 32 27 24 23 22 21 21 21 20 21 19 18 18 17 17 18 21 26 19 17 15 14 13 13 13 13 13 15 15 12 10 10 11 10 10 12 17 14 15 15 14 14 12 12 13 13 10 9 8 9 10 13 15 14 12 12 15 12 11 13 13 14 16 14 21 25 22 20 17
31 35 37 36 35 34 32 31 30 30 41 42 44 42 40 35 31 28 26 24 23 22 22 23 23 22 22 21 21 20 20 20 30 29 26 21 18 17 16 15 14 14 14 16 23 21 17 16 12 9 8 8 8 9 11 11 15 17 15 13 14 15 12 9 9 9 10 13 15 13 10 9 13 13 11 13 14 14 15 16 18 27 26 23 19
25 33 40 42 41 39 36 33 34 32 40 40 41 43 40 36 30 30 28 26 24 24 24 24 25 25 25 25 25 24 22 27 33 30 28 23 20 19 18 17 16 16 17 18 18 22 24 19 18 16 14 13 13 12 12 13 14 21 21 16 16 17 13 12 11 10 10 12 15 14 12 13 14 15 12 13 13 14 16 18 19 24 31 24 22
23 30 36 40 44 44 41 36 42 36 38 42 46 45 42 38 33 31 29 28 27 27 26 26 26 28 28 28 28 27 29 35 34 33 27 22 20 19 19 19 18 18 19 20 20 20 22 23 21 20 21 20 20 21 21 20 19 23 24 20 18 19 16 14 14 12 10 14 18 23 18 14 15 16 16 14 12 14 15 17 20 22 21 19 19
Wind_Direction
85 91 98 101 98 91 88 87 80 78 75 79 91 94 94 100 105 107 106 109 108 111 110 115 114 119 121 113 116 113 113 108 102 93 97 88 87 67 78 92 100 104 108 114 116 118 120 118 118 113 110 106 107 107 106 105 102 101 101 97 98 99 98 96 95 92 91 88 84 81 77 73 69 66 65 64 63 61 60 58 57 57 56 54 49
113 109 104 104 106 106 103 94 86 79 78 83 85 86 90 94 99 102 103 105 111 115 115 116 118 120 120 118 112 112 97 94 90 89 82 84 98 86 68 89 95 99 105 113 118 120 122 121 120 115 112 110 109 109 110 108 106 104 103 101 99 98 97 93 90 89 87 85 82 79 75 72 68 65 65 64 64 62 60 60 60 60 59 56 52
122 117 117 113 112 106 101 94 89 92 90 87 87 91 94 99 104 104 107 110 114 116 113 117 120 116 115 110 106 100 104 94 72 67 66 92 103 100 71 71 88 93 102 108 116 118 119 122 117 113 110 109 108 108 107 106 105 103 100 99 96 93 90 86 83 82 82 80 78 76 73 69 66 63 63 65 64 63 60 59 57 56 57 57 56
122 120 121 112 106 106 104 101 105 102 99 96 95 99 102 105 106 112 112 114 111 113 113 115 118 122 110 114 108 100 88 85 81 93 95 95 100 105 101 84 71 87 97 108 111 113 117 116 115 110 107 105 105 106 105 105 105 103 100 97 94 90 86 83 79 78 77 76 74 73 71 68 64 61 61 60 61 62 61 60 58 58 58 59 57
117 115 108 108 105 99 102 105 105 105 104 106 105 101 102 103 108 110 117 114 117 115 109 117 127 124 112 107 104 99 88 79 80 75 90 79 93 104 110 109 92 65 83 98 105 114 115 113 112 109 107 105 104 104 104 105 104 101 99 96 91 87 85 82 79 77 75 74 73 72 70 67 64 62 57 56 56 59 61 61 61 58 55 55 56
107 108 105 106 104 108 109 110 111 109 107 103 103 107 110 113 115 116 117 120 121 120 122 124 120 110 112 109 99 101 89 82 85 83 85 103 120 109 104 105 109 106 95 77 97 103 106 109 107 106 105 102 102 102 103 103 102 100 97 94 89 86 84 82 80 76 74 72 70 69 68 65 64 58 55 54 55 57 58 59 56 55 52 50 52
105 106 109 104 105 109 110 114 115 108 109 111 111 112 113 114 119 120 122 124 128 130 132 132 121 115 117 114 108 99 97 90 98 92 89 106 111 125 123 118 119 114 110 108 77 89 97 98 98 101 100 101 100 101 102 102 100 98 95 93 91 88 87 87 83 78 75 72 70 68 66 65 62 58 58 55 52 50 52 53 47 44 42 41 44
104 106 105 108 113 115 120 122 114 113 117 116 113 116 120 121 124 126 131 136 128 130 127 126 127 126 116 92 93 89 84 95 84 96 115 102 113 117 117 125 120 125 127 125 127 99 77 89 93 93 96 97 98 98 100 101 100 97 96 95 96 97 98 97 92 86 80 73 69 66 62 58 52 48 46 46 48 44 42 44 43 41 38 37 41
106 107 107 109 116 119 119 118 117 122 118 116 118 121 119 123 126 133 136 136 134 140 131 124 123 113 94 100 102 101 102 92 97 98 106 107 96 92 109 125 131 117 108 115 121 123 61 78 82 87 89 92 93 94 97 100 98 100 101 102 104 106 106 102 96 87 78 69 58 50 41 35 28 28 32 33 38 41 42 44 46 43 37 37 37
107 109 114 117 118 123 130 126 122 124 123 126 124 123 123 129 135 139 141 140 139 138 139 136 127 113 111 101 96 92 79 81 92 93 91 99 106 118 117 131 116 122 127 133 134 131 124 57 66 72 74 77 80 84 88 93 97 102 107 110 111 109 106 99 90 81 66 37 19 11 10 12 15 9 13 21 31 44 49 51 53 47 39 36 35
109 112 110 113 117 123 123 125 127 132 131 123 126 135 138 141 144 147 140 145 142 142 147 130 119 115 100 92 75 78 89 82 81 88 101 106 131 113 109 117 127 127 124 113 115 119 127 135 104 95 58 48 66 72 77 83 94 100 105 108 106 102 96 86 71 55 32 15 3 0 2 4 2 359 3 12 25 40 53 58 59 53 46 41 38
113 115 117 117 121 121 128 124 137 137 136 139 140 142 147 149 152 150 151 143 139 137 142 119 120 118 111 87 86 84 86 89 79 81 84 85 82 106 104 96 125 129 123 113 137 136 135 130 120 113 120 25 46 58 62 73 79 84 88 93 95 92 88 76 51 23 18 10 4 4 7 6 4 0 359 10 19 33 47 58 58 54 50 46 43
117 117 120 123 124 132 129 131 136 145 141 148 156 162 156 153 155 147 157 152 147 134 153 141 128 117 101 97 81 84 67 78 92 86 84 84 84 82 123 123 140 129 131 146 127 128 120 114 119 121 117 117 46 34 50 58 57 60 66 89 92 90 87 77 43 16 12 10 7 5 7 7 5 1 1 8 20 29 42 54 57 54 53 49 43
125 123 126 121 126 129 132 137 142 149 153 157 160 159 160 157 159 149 155 162 159 163 161 117 126 131 95 86 104 107 104 82 75 87 87 92 88 102 123 132 147 146 149 141 89 84 93 104 120 143 133 116 128 131 77 52 22 20 87 88 92 93 77 60 41 21 12 8 5 1 2 3 3 2 3 11 20 29 38 48 55 54 53 47 44
129 129 132 127 132 138 133 143 144 152 146 153 161 164 159 165 154 164 161 164 163 166 175 148 169 158 132 109 104 76 105 112 118 126 119 124 110 117 120 127 189 166 146 117 158 140 146 143 147 138 142 132 139 140 139 125 194 126 78 68 70 74 56 39 34 23 12 4 4 1 2 2 5 6 9 15 22 32 38 46 50 53 50 47 41
118 119 134 141 144 138 142 164 156 158 155 162 166 168 167 155 154 169 154 158 172 187 184 185 168 140 133 146 124 120 113 125 137 141 139 135 111 111 93 161 202 180 144 129 203 178 146 128 129 132 135 153 148 146 139 171 93 60 22 19 7 25 25 21 28 23 12 5 7 6 4 4 7 10 14 19 25 32 40 45 49 49 49 42 39
130 126 141 146 151 148 161 170 178 160 163 166 163 181 178 175 166 152 153 162 171 181 184 191 208 178 167 128 141 158 165 155 177 157 143 162 167 194 184 134 235 181 152 189 192 152 139 210 150 141 143 139 141 146 153 166 184 183 334 346 332 13 8 13 23 21 14 11 11 12 7 5 7 11 15 20 25 32 39 45 47 47 45 40 35
142 134 158 170 153 158 163 169 182 182 172 174 190 191 183 162 195 161 168 167 164 161 201 192 200 201 181 195 174 177 163 155 146 179 162 170 204 183 157 157 222 208 170 148 197 138 275 75 18 86 170 173 187 160 172 162 188 53 48 302 339 8 16 14 19 20 18 16 16 15 11 6 6 9 13 20 24 31 38 43 45 46 43 37 31
179 144 192 188 175 179 185 164 182 190 189 191 184 168 208 196 192 189 183 181 169 175 158 211 191 176 192 190 189 183 184 175 181 165 205 172 167 210 228 201 169 252 96 257 296 259 243 199 140 186 247 210 204 196 181 223 327 12 15 29 19 13 17 19 17 18 21 22 20 18 13 8 5 7 12 18 22 28 36 40 42 43 41 35 26
229 217 175 229 174 198 194 173 174 185 202 194 192 187 203 201 195 199 194 192 185 178 177 183 195 201 191 172 200 202 183 195 195 191 180 209 194 174 245 221 218 211 197 204 219 230 230 182 227 5 265 257 247 216 218 261 255 35 349 352 7 17 19 22 21 20 22 25 23 20 16 9 5 4 9 17 19 25 31 37 39 40 39 35 23
203 273 193 168 145 172 227 147 122 161 167 200 185 217 197 210 202 194 198 202 194 201 185 190 173 200 200 185 183 184 200 204 225 200 201 191 234 227 203 214 219 220 203 192 226 228 232 236 225 160 264 287 323 340 99 225 268 20 336 320 9 22 23 27 30 30 27 24 25 21 16 11 5 2 6 12 17 20 26 33 36 35 36 33 23
245 217 247 153 141 122 65 43 63 68 132 204 194 218 209 206 189 194 205 200 201 193 190 194 187 189 195 195 190 193 186 199 202 213 243 199 202 217 234 230 240 222 205 215 218 236 215 229 193 229 227 189 222 33 290 58 23 54 286 347 31 31 30 36 40 37 35 28 23 20 17 13 8 3 3 7 12 18 23 29 34 35 33 32 25
231 256 247 246 237 194 168 215 181 252 145 279 14 340 294 249 223 222 210 202 200 199 186 186 186 188 182 199 184 193 211 199 207 203 200 226 201 208 246 220 204 249 234 224 211 245 248 228 207 232 219 158 189 126 105 218 48 295 55 50 35 31 35 41 44 41 38 31 21 20 18 17 12 6 4 6 11 19 24 27 33 34 31 31 27
203 231 246 260 251 236 220 221 230 233 272 321 285 259 243 248 230 223 225 213 202 193 182 191 177 194 177 195 199 187 213 181 208 234 219 211 197 205 239 235 234 248 253 275 289 269 262 251 236 237 228 181 159 145 70 65 346 322 54 20 28 35 38 40 43 39 31 27 21 19 22 23 20 15 8 10 16 22 27 29 33 35 32 29 30
230 225 256 260 259 251 253 247 248 249 228 222 239 235 228 227 242 211 222 222 214 197 191 186 189 182 188 197 191 194 200 197 190 186 220 217 202 188 195 217 250 292 263 223 250 301 306 294 299 213 186 119 122 99 104 74 18 328 30 66 34 23 27 34 34 28 25 22 22 24 29 30 25 23 22 17 22 26 29 31 32 35 33 28 31
269 262 247 282 278 273 270 270 262 259 258 251 237 232 229 217 235 216 216 223 209 203 189 190 193 193 184 186 187 197 192 199 196 181 173 206 188 188 208 178 162 200 285 311 289 67 339 327 359 320 125 156 132 114 77 78 28 324 53 76 35 5 1 20 16 21 18 20 26 34 41 44 45 38 35 30 26 27 27 28 28 29 32 31 27
262 263 262 262 277 276 279 279 279 269 265 254 249 246 230 222 215 212 197 226 213 202 205 199 200 214 203 199 200 190 199 197 176 184 185 181 190 195 200 177 172 173 134 276 333 9 76 170 77 322 288 100 110 73 56 72 0 317 82 67 64 342 351 346 11 15 24 28 38 49 53 51 52 50 43 40 31 27 27 25 24 23 26 29 26
253 259 277 279 283 284 287 287 274 273 265 250 229 234 246 221 230 223 205 227 228 223 208 209 208 215 209 217 214 203 208 200 192 193 191 193 195 190 184 174 178 163 179 159 184 166 272 79 61 321 16 151 113 69 31 49 53 236 61 70 62 14 328 347 4 26 33 40 47 55 59 59 55 52 45 39 34 27 25 25 23 20 20 24 25
251 278 279 283 281 289 283 283 282 262 256 249 242 238 236 223 234 234 202 220 236 221 211 215 207 209 231 245 228 225 222 224 207 194 225 202 189 199 191 182 200 178 171 174 177 149 157 158 134 294 285 118 78 85 60 63 296 222 101 77 65 47 303 14 24 31 41 43 52 55 59 59 56 47 46 41 37 33 28 25 24 20 15 18 22
247 253 272 283 283 286 281 271 268 272 259 263 263 254 256 226 241 229 225 221 231 231 231 220 221 220 218 223 236 236 250 246 268 247 244 240 219 228 226 224 232 203 198 179 178 150 148 151 133 169 284 318 78 45 64 94 306 56 103 82 65 10 337 42 33 31 33 43 50 59 57 55 49 43 41 41 36 33 29 25 21 18 13 14 18
256 241 253 270 279 285 279 280 270 268 272 265 264 259 262 239 247 233 271 257 241 243 244 245 232 231 226 222 227 222 225 220 219 230 259 274 275 260 237 244 248 237 210 208 192 193 169 157 170 175 171 175 166 172 128 136 321 328 98 79 48 334 44 35 25 17 24 34 46 50 56 50 46 45 40 31 25 20 19 20 18 18 16 12 14
261 268 259 256 276 287 291 286 279 276 277 273 274 270 253 223 251 225 265 271 251 248 233 246 240 246 241 231 232 221 226 233 241 236 257 281 263 252 264 260 272 268 232 227 209 164 177 164 175 175 172 199 178 122 146 128 183 349 51 58 18 11 16 2 351 8 355 21 28 42 56 57 55 48 35 23 16 12 13 15 16 15 15 14 10
252 266 270 264 264 273 277 281 276 269 265 263 264 266 263 259 228 218 230 259 247 239 255 241 237 243 244 237 230 223 216 208 220 222 226 247 274 279 275 279 289 287 284 258 201 168 166 168 163 167 189 178 154 175 138 144 148 167 146 49 9 2 354 349 348 345 348 358 23 43 60 69 62 51 33 18 10 9 8 11 15 15 12 13 11
244 253 263 267 271 270 270 273 270 272 273 269 274 278 281 279 268 271 283 278 258 230 225 244 248 237 251 254 243 242 255 232 216 211 226 219 240 250 275 290 276 272 280 265 234 187 142 147 162 174 157 168 143 177 168 156 159 160 130 341 352 352 338 335 359 337 340 344 15 43 63 65 63 52 36 20 11 9 6 8 12 15 14 13 13
253 244 255 257 262 266 262 265 270 270 275 278 278 277 279 283 278 259 259 276 277 254 264 265 249 257 266 263 263 272 269 274 273 260 243 230 227 219 208 215 215 225 247 277 283 137 129 139 155 153 154 168 154 157 158 160 178 46 339 339 331 334 327 335 346 360 329 343 358 42 54 52 53 44 35 27 19 11 8 nan 12 13 12 12 12
251 253 248 253 260 259 261 265 269 268 277 278 277 283 282 280 277 280 276 272 270 271 258 247 263 280 277 271 263 251 241 249 254 247 249 252 248 260 249 246 250 221 236 283 345 40 109 124 147 139 155 163 147 147 165 228 261 295 321 325 341 339 327 335 359 26 328 347 9 33 42 43 38 38 31 29 23 nan nan nan nan nan 9 11 11
253 257 256 252 258 260 259 267 270 271 272 274 273 272 275 276 279 279 279 283 285 285 280 273 256 258 261 274 286 295 317 306 295 319 290 275 265 242 240 269 270 266 276 279 309 347 55 108 137 152 161 171 199 219 270 285 303 324 321 328 326 333 328 342 17 5 56 8 16 20 24 25 25 24 29 30 23 20 19 21 nan nan nan 9 10
254 254 259 259 260 264 258 259 263 266 266 266 268 265 269 274 276 275 278 281 284 285 287 292 299 306 306 313 308 312 330 1 108 216 225 195 237 3 234 230 221 232 262 315 317 314 331 333 319 173 247 237 263 286 296 308 314 313 319 321 327 317 313 325 321 10 56 nan 0 6 11 14 6 17 30 29 24 22 24 27 26 21 nan nan nan
257 258 261 261 261 263 264 260 259 261 262 263 264 265 262 260 261 264 263 271 276 279 285 287 284 286 295 301 303 306 309 309 292 272 281 287 266 220 249 232 235 258 262 284 301 316 322 320 316 320 310 303 294 296 302 307 318 322 321 313 307 296 293 293 303 317 62 108 79 29 27 44 52 49 21 23 25 24 26 28 27 24 16 nan nan
255 258 257 261 261 260 262 262 258 258 258 258 262 262 263 267 268 269 267 264 268 275 278 280 275 272 273 276 285 287 293 293 288 275 273 270 262 256 255 260 265 270 271 272 277 282 291 292 299 295 292 295 312 318 316 324 329 329 324 309 308 303 307 308 309 314 329 13 9 341 344 5 22 20 29 33 30 24 25 23 24 23 13 7 nan
251 254 256 256 258 259 261 261 260 260 261 262 260 263 265 261 257 262 266 267 267 267 268 270 276 278 277 273 276 283 274 265 267 262 244 237 244 247 248 257 269 273 278 280 284 291 296 302 304 304 311 311 315 324 326 324 330 320 306 313 309 312 305 300 302 308 321 328 332 320 303 159 59 52 86 70 28 5 13 13 16 6 357 359 nan
249 246 248 252 255 258 259 262 261 260 259 257 261 256 247 250 257 258 261 262 257 251 253 258 265 275 279 275 271 263 264 277 288 295 301 300 295 283 270 271 274 279 283 287 294 300 301 300 305 305 307 304 304 306 302 307 326 330 307 277 266 267 271 278 291 301 301 309 309 310 312 315 2 11 6 25 26 12 353 359 306 290 333 350 nan
249 249 248 248 251 253 255 257 260 260 259 259 272 274 273 263 253 257 259 260 264 262 259 262 259 260 264 270 270 284 292 292 296 306 308 312 316 324 333 336 324 308 302 301 299 291 289 295 292 296 293 286 287 275 273 262 255 240 245 251 252 258 268 270 273 288 303 295 301 309 312 311 325 333 331 350 359 345 351 318 298 329 349 nan nan
247 247 249 246 244 245 249 251 254 255 255 263 276 275 275 273 265 255 256 259 262 264 264 258 256 258 262 268 274 277 285 288 283 296 312 325 332 334 336 335 336 337 328 311 297 292 293 291 291 289 283 289 289 291 284 268 260 262 270 271 273 273 274 281 286 287 286 291 294 302 309 309 312 323 329 333 337 335 319 307 329 348 0 359 nan
251 249 248 248 247 246 244 246 246 249 249 268 273 272 269 268 268 258 252 253 251 253 254 254 252 249 249 254 258 263 266 274 287 292 289 303 322 334 334 331 327 331 331 338 336 324 307 314 313 308 307 302 304 296 288 282 281 289 289 293 292 291 288 292 298 289 288 289 298 305 300 298 308 320 317 314 318 316 316 330 336 337 344 356 352
255 251 250 251 249 247 246 245 246 246 244 265 270 270 266 265 265 259 251 253 253 251 248 248 249 252 254 252 255 260 268 276 281 285 289 292 290 298 304 303 302 316 330 336 339 344 342 326 319 315 312 311 312 301 292 289 291 291 288 294 292 294 297 307 297 295 298 300 307 298 298 300 299 300 305 305 307 310 315 312 322 330 338 344 341
255 251 248 249 248 247 247 246 245 246 247 263 266 269 266 263 261 258 249 249 252 253 253 253 252 250 248 251 253 256 261 265 268 272 278 278 279 281 284 286 289 290 294 304 312 314 315 320 322 323 314 309 308 308 306 303 301 294 292 290 290 290 302 315 318 317 313 312 316 312 315 304 297 297 298 293 293 297 298 305 327 331 333 335 335
255 252 249 246 248 247 245 243 243 243 244 249 251 253 255 257 258 254 251 251 251 251 254 254 252 250 250 250 250 253 254 254 263 273 272 268 268 273 278 281 284 288 292 298 301 292 297 293 296 296 296 275 265 274 276 282 285 290 293 300 301 306 317 323 319 311 313 303 304 308 316 315 301 295 293 291 291 296 293 292 310 327 328 331 328
265 257 253 249 246 245 246 245 244 240 248 246 253 256 257 260 259 253 251 248 249 251 251 253 253 252 250 249 249 247 249 252 264 275 273 273 268 269 272 274 272 271 275 277 303 317 317 318 314 297 280 277 287 289 293 299 298 287 287 293 300 303 314 318 313 307 308 296 299 302 306 302 289 291 292 289 291 292 295 299 297 314 323 320 325
271 261 253 249 247 246 243 245 246 246 248 243 249 255 257 257 250 251 252 250 249 248 249 252 254 254 253 251 248 246 245 251 254 257 265 264 263 265 267 270 272 275 275 276 275 288 313 311 307 307 305 301 299 300 297 299 302 297 299 304 299 295 304 304 299 295 291 293 292 299 307 306 294 294 291 289 293 300 298 294 292 295 312 319 327
257 251 248 250 249 245 244 245 242 242 249 246 243 246 249 252 248 251 251 252 250 250 250 251 256 256 257 258 262 257 250 254 252 254 252 252 256 259 261 262 266 267 269 262 265 264 267 273 279 283 287 293 294 291 295 310 315 308 305 306 298 299 301 300 296 289 288 291 287 282 292 292 293 295 293 290 292 292 292 295 296 297 294 292 296